User: anonymous   Login
Location: Fort Wayne
(41.1310°N, 85.1290°W)
Time: 02:28:00
(UTC-04:00)
Language:

Oscar 19 - Orbit

View from above orbital plane
View from above orbital plane
View from above satellite
View from above satellite

Ground track
Ground track

The orbit data is extracted from the following two-line orbital elements,

1 20442U 90005G   15149.06838912  .00000068  00000-0  41053-4 0  9994
2 20442 098.5107 085.1598 0011259 199.7265 160.3485 14.32735720324209
Epoch (UTC): 29 May 2015 01:38:28
Eccentricity: 0.0011259
inclination: 98.5107°
perigee height: 774 km
apogee height: 790 km
right ascension of ascending node: 85.1598°
argument of perigee: 199.7265°
revolutions per day: 14.32735720
mean anomaly at epoch: 160.3485°
orbit number at epoch: 32420

The dashed part of the orbit path shows where the satellite is in the earth's shadow,  

DLR